Goiania Airport, Brazil

7:14 PM -02 on December 10, 2018 (GMT -0200)
Santa Genoveva

Weather History for SBGO - December, 2018

Change the Weather History Date:

Monday, December 10, 2018

  Actual Average Record
Temperature  
Mean Temperature 76 °F -  
Max Temperature 82 °F 84 °F 91 °F (1996)
Min Temperature 69 °F 67 °F 48 °F (2000)
Cooling Degree Days 10    
Growing Degree Days 26 (Base 50)    
Moisture  
Dew Point 65 °F    
Average Humidity 70    
Maximum Humidity 88    
Minimum Humidity 51    
Precipitation  
Precipitation 0.00 in 0.34 in - ()
Sea Level Pressure  
Sea Level Pressure 30.16 in    
Wind  
Wind Speed 5 mph ()    
Max Wind Speed 12 mph    
Max Gust Speed -    
Visibility 6.2 miles    
Events      
Averages and records for this station are not official NWS values.
T = Trace of Precipitation, MM = Missing Value Source: Averaged Metar Reports

Daily Weather History Graph

Daily Weather History Graph

Search for Another Location

Airport or City:

Astronomy

Dec. 10, 2018 Rise Set
Actual Time 6:36 AM -02 7:42 PM -02
Civil Twilight 6:12 AM -02 8:06 PM -02
Nautical Twilight 5:44 AM -02 8:34 PM -02
Astronomical Twilight 5:15 AM -02 9:03 PM -02
Moon 9:16 AM -02 10:33 PM -02
Length of Visible Light 13h 53m
Length of Day
13h 05m
Waxing Crescent, 10% of the Moon is Illuminated
Today
Waxing Crescent
Dec 15
First Quarter
Dec 22
Full
Dec 29
Last Quarter
Jan 5
New

Hourly Weather History & Observations

Time (-02) Temp. Heat Index Dew Point Humidity Pressure Visibility Wind Dir Wind Speed Gust Speed Precip Events Conditions
12:00 AM 69.8 °F - 66.2 °F 88% 30.15 in 6.2 mi Variable 2.3 mph - N/A   Overcast
1:00 AM 71.6 °F - 64.4 °F 78% 30.15 in 6.2 mi NNE 3.5 mph - N/A   Mostly Cloudy
2:00 AM 71.6 °F - 66.2 °F 83% 30.15 in 6.2 mi NE 4.6 mph - N/A   Mostly Cloudy
3:00 AM 71.6 °F - 66.2 °F 83% 30.15 in 6.2 mi NNE 4.6 mph - N/A   Mostly Cloudy
4:00 AM 71.6 °F - 66.2 °F 83% 30.15 in 6.2 mi ENE 4.6 mph - N/A   Mostly Cloudy
5:00 AM 69.8 °F - 64.4 °F 83% 30.15 in 6.2 mi ENE 10.4 mph - N/A   Mostly Cloudy
6:00 AM 69.8 °F - 64.4 °F 83% 30.15 in 6.2 mi NE 6.9 mph - N/A   Mostly Cloudy
7:00 AM 69.8 °F - 64.4 °F 83% 30.18 in 6.2 mi North 2.3 mph - N/A   Scattered Clouds
8:00 AM 71.6 °F - 64.4 °F 78% 30.18 in 6.2 mi ENE 8.1 mph - N/A   Scattered Clouds
9:00 AM 73.4 °F - 64.4 °F 73% 30.21 in 6.2 mi ENE 11.5 mph - N/A   Scattered Clouds
10:00 AM 77.0 °F - 64.4 °F 65% 30.21 in 6.2 mi ENE 10.4 mph - N/A   Scattered Clouds
11:00 AM 77.0 °F - 64.4 °F 65% 30.21 in 6.2 mi NNE 10.4 mph - N/A   Scattered Clouds
12:00 PM 78.8 °F - 62.6 °F 57% 30.21 in 6.2 mi NE 8.1 mph - N/A   Scattered Clouds
1:00 PM 80.6 °F 81.8 °F 62.6 °F 54% 30.18 in 6.2 mi NNE 9.2 mph - N/A   Scattered Clouds
2:00 PM 80.6 °F 82.3 °F 64.4 °F 58% 30.18 in 6.2 mi NE 9.2 mph - N/A   Mostly Cloudy
3:00 PM 82.4 °F 83.9 °F 64.4 °F 54% 30.15 in 6.2 mi East 6.9 mph - N/A   Partly Cloudy
4:00 PM 82.4 °F 83.4 °F 62.6 °F 51% 30.12 in 6.2 mi East 5.8 mph - N/A   Partly Cloudy
5:00 PM 80.6 °F 82.7 °F 66.2 °F 61% - 6.2 mi North 4.6 mph - N/A   Scattered Clouds
6:00 PM 80.6 °F 82.3 °F 64.4 °F 58% 30.09 in 6.2 mi NNE 9.2 mph - N/A   Partly Cloudy
7:00 PM 80.6 °F 82.7 °F 66.2 °F 61% 30.09 in 6.2 mi North 4.6 mph - N/A   Partly Cloudy